Location: De Greiden
(52.9496°N, 5.9137°E)
Time: 23:48:51
(UTC+00:00)

CZ-4 R/B - Pass Details

Date: 24 January 2021
Orbit: 531 x 599 km, 97.7° (Epoch: 01 March)

Event Time Altitude Azimuth Distance (km) Brightness Sun altitude
Rises 17:53:20 0° 161° (SSE) 2,781 4.8 -15.8°
Reaches altitude 10° 17:55:30 10° 161° (SSE) 1,876 3.9 -16.1°
Maximum altitude 17:59:34 82° 74° (ENE) 577 1.2 -16.7°
Drops below altitude 10° 18:03:34 10° 347° (NNW) 1,850 4.0 -17.3°
Sets 18:05:41 0° 347° (NNW) 2,738 4.9 -17.6°
